Reading, PA

11:40 PM EDT on March 23, 2017 (GMT -0400)
Reading Regional-Spaatz

Weather History for KRDG - December, 2013

Change the Weather History Date:

Tuesday, December 17, 2013

  Actual Average Record
Temperature  
Mean Temperature 21 °F 33 °F  
Max Temperature 25 °F 41 °F 62 °F (2000)
Min Temperature 16 °F 26 °F 2 °F (1919)
Degree Days  
Heating Degree Days 44 32  
Month to date heating degree days 541 498  
Since 1 July heating degree days 1590 1565  
Cooling Degree Days 0 0  
Month to date cooling degree days 0 0  
Year to date cooling degree days 1124 896  
Moisture  
Dew Point 18 °F    
Average Humidity 80    
Maximum Humidity 92    
Minimum Humidity 68    
Precipitation  
Precipitation 0.06 in 0.10 in 1.92 in (1888)
Month to date precipitation 1.84 1.91  
Year to date precipitation 39.22 41.89  
Sea Level Pressure  
Sea Level Pressure 30.07 in    
Wind  
Wind Speed 3 mph (NNE)    
Max Wind Speed 9 mph    
Max Gust Speed 13 mph    
Visibility 5 miles    
Events Fog , Snow    
T = Trace of Precipitation, MM = Missing Value Source: NWS Daily Summary

Daily Weather History Graph

Daily Weather History Graph

Search for Another Location

Airport or City:

Trip Planner

Search our weather history database for the weather conditions in past years. The results will help you decide how hot, cold, wet, or windy it might be!

Date:

Astronomy

Dec. 17, 2013 Rise Set
Actual Time 7:21 AM EST 4:39 PM EST
Civil Twilight 6:50 AM EST 5:09 PM EST
Nautical Twilight 6:16 AM EST 5:44 PM EST
Astronomical Twilight 5:42 AM EST 6:17 PM EST
Moon 5:17 PM EST (12/17) 7:15 AM EST (12/17)
Length of Visible Light 10h 19m
Length of Day
9h 17m
Full, 100% of the Moon is Illuminated
Dec 17
Full
Dec 25
Last Quarter
Jan 1
New
Jan 7
First Quarter
Jan 15
Full

Hourly Weather History & Observations

Time (EST) Temp. Windchill Dew Point Humidity Pressure Visibility Wind Dir Wind Speed Gust Speed Precip Events Conditions
12:54 AM 23.0 °F - 14.0 °F 68% 30.20 in 10.0 mi Calm Calm - N/A   Overcast
1:14 AM 23.0 °F - 15.8 °F 74% 30.18 in 10.0 mi Calm Calm - N/A   Overcast
1:54 AM 21.9 °F - 14.0 °F 72% 30.20 in 10.0 mi Calm Calm - N/A   Overcast
2:22 AM 23.0 °F - 14.0 °F 68% 30.17 in 10.0 mi Calm Calm - N/A   Overcast
2:54 AM 23.0 °F - 15.1 °F 72% 30.19 in 10.0 mi Calm Calm - N/A   Overcast
3:08 AM 24.8 °F - 15.8 °F 69% 30.16 in 10.0 mi Calm Calm - N/A   Overcast
3:39 AM 24.8 °F 20.5 °F 15.8 °F 69% 30.14 in 4.0 mi East 3.5 mph - 0.00 in Snow Light Snow
3:54 AM 24.1 °F 18.2 °F 16.0 °F 71% 30.17 in 3.0 mi ESE 4.6 mph - 0.00 in Snow Light Snow
4:01 AM 24.8 °F - 15.8 °F 69% 30.14 in 2.0 mi Calm Calm - 0.00 in Snow Light Snow
4:09 AM 24.8 °F - 17.6 °F 74% 30.14 in 1.8 mi Calm Calm - 0.00 in Snow Light Snow
4:16 AM 24.8 °F - 17.6 °F 74% 30.14 in 2.5 mi Calm Calm - 0.00 in Snow Light Snow
4:23 AM 24.8 °F 20.5 °F 17.6 °F 74% 30.14 in 2.5 mi SSE 3.5 mph - 0.00 in Snow Light Snow
4:38 AM 23.0 °F - 19.4 °F 86% 30.13 in 1.5 mi Calm Calm - 0.00 in Snow Light Snow
4:47 AM 23.0 °F - 19.4 °F 86% 30.13 in 1.5 mi Calm Calm - 0.00 in Snow Light Snow
4:54 AM 23.0 °F - 19.0 °F 85% 30.16 in 1.8 mi Calm Calm - 0.00 in Snow Light Snow
5:18 AM 23.0 °F - 19.4 °F 86% 30.13 in 1.2 mi Calm Calm - 0.01 in Snow Light Snow
5:25 AM 23.0 °F - 19.4 °F 86% 30.13 in 1.0 mi Calm Calm - 0.01 in Snow Light Snow
5:41 AM 23.0 °F - 19.4 °F 86% 30.13 in 3.0 mi Calm Calm - 0.02 in Snow Light Snow
5:54 AM 23.0 °F - 19.0 °F 85% 30.16 in 5.0 mi Calm Calm - 0.02 in   Overcast
6:01 AM 24.8 °F 20.5 °F 19.4 °F 80% 30.12 in 6.0 mi ESE 3.5 mph - 0.00 in   Overcast
6:18 AM 24.8 °F 19.1 °F 19.4 °F 80% 30.12 in 9.0 mi East 4.6 mph - 0.00 in   Overcast
6:54 AM 23.0 °F 17.0 °F 19.0 °F 85% 30.15 in 7.0 mi East 4.6 mph - 0.00 in Snow Light Snow
7:54 AM 24.1 °F 17.0 °F 18.0 °F 77% 30.13 in 10.0 mi ENE 5.8 mph - 0.00 in   Overcast
8:33 AM 24.8 °F 20.5 °F 17.6 °F 74% 30.11 in 9.0 mi ENE 3.5 mph - 0.00 in   Overcast
8:54 AM 24.1 °F 18.2 °F 18.0 °F 77% 30.13 in 10.0 mi ENE 4.6 mph - 0.00 in   Overcast
9:54 AM 24.1 °F 17.0 °F 19.0 °F 81% 30.10 in 4.0 mi NNE 5.8 mph - 0.00 in Snow Light Snow
10:33 AM 24.8 °F 17.9 °F 19.4 °F 80% 30.06 in 2.5 mi NNE 5.8 mph - 0.00 in Snow Light Snow
10:46 AM 24.8 °F 17.9 °F 19.4 °F 80% 30.05 in 4.0 mi NNE 5.8 mph - 0.00 in Snow Light Snow
10:54 AM 24.1 °F 17.0 °F 19.0 °F 81% 30.08 in 6.0 mi NNE 5.8 mph - 0.00 in   Haze
11:54 AM 24.1 °F 17.0 °F 19.0 °F 81% 30.04 in 7.0 mi North 5.8 mph - 0.00 in   Overcast
12:54 PM 24.1 °F 16.0 °F 19.0 °F 81% 30.01 in 4.0 mi North 6.9 mph - 0.01 in Snow Light Snow
1:05 PM 24.8 °F 16.9 °F 19.4 °F 80% 29.98 in 1.8 mi North 6.9 mph - 0.00 in Snow Light Snow
1:11 PM 24.8 °F 16.9 °F 19.4 °F 80% 29.97 in 0.8 mi North 6.9 mph - 0.01 in Snow Light Snow
1:19 PM 24.8 °F 16.1 °F 19.4 °F 80% 29.98 in 0.5 mi North 8.1 mph - 0.02 in Fog , Snow Snow
1:28 PM 24.8 °F 16.9 °F 19.4 °F 80% 29.97 in 0.5 mi North 6.9 mph - 0.02 in Fog , Snow Snow
1:40 PM 24.8 °F 16.9 °F 21.2 °F 86% 29.97 in 0.5 mi North 6.9 mph - 0.03 in Fog , Snow Snow
1:48 PM 24.8 °F 16.9 °F 21.2 °F 86% 29.98 in 0.8 mi North 6.9 mph - 0.03 in Snow Light Snow
1:49 PM 24.8 °F 16.9 °F 21.2 °F 86% 29.98 in 1.0 mi North 6.9 mph - 0.03 in Snow Light Snow
1:54 PM 24.1 °F 17.0 °F 19.9 °F 84% 30.01 in 1.2 mi NNW 5.8 mph - 0.03 in Snow Light Snow
2:05 PM 24.8 °F 20.5 °F 19.4 °F 80% 29.98 in 1.5 mi North 3.5 mph - 0.00 in Snow Light Snow
2:19 PM 24.8 °F - 19.4 °F 80% 29.96 in 2.5 mi Calm Calm - 0.00 in Snow Light Snow
2:26 PM 24.8 °F 20.5 °F 19.4 °F 80% 29.96 in 3.0 mi NNE 3.5 mph - 0.00 in Snow Light Snow
2:42 PM 24.8 °F 19.1 °F 19.4 °F 80% 29.96 in 8.0 mi NE 4.6 mph - 0.00 in   Mostly Cloudy
2:54 PM 25.0 °F 19.3 °F 19.9 °F 81% 30.00 in 9.0 mi NNW 4.6 mph - 0.00 in   Mostly Cloudy
3:54 PM 25.0 °F 20.7 °F 19.9 °F 81% 30.01 in 7.0 mi NNW 3.5 mph - N/A   Mostly Cloudy
4:54 PM 24.1 °F 19.7 °F 19.9 °F 84% 30.00 in 8.0 mi NNW 3.5 mph - N/A   Scattered Clouds
5:54 PM 21.0 °F - 18.0 °F 88% 30.00 in 7.0 mi Calm Calm - N/A   Clear
6:54 PM 19.9 °F - 17.1 °F 89% 30.01 in 6.0 mi Calm Calm - N/A   Clear
7:54 PM 19.0 °F 13.9 °F 16.0 °F 88% 30.01 in 4.0 mi NNW 3.5 mph - N/A   Clear
8:54 PM 19.0 °F - 17.1 °F 92% 30.01 in 4.0 mi Calm Calm - N/A   Clear
9:54 PM 18.0 °F - 15.1 °F 88% 30.00 in 4.0 mi Calm Calm - N/A   Clear
10:54 PM 18.0 °F - 15.1 °F 88% 30.00 in 5.0 mi Calm Calm - N/A   Clear
11:54 PM 19.0 °F 12.3 °F 16.0 °F 88% 30.00 in 5.0 mi NNW 4.6 mph - N/A   Clear